Weather Service Report


868 
ASUS41 KBOX 290610
RWRBOX

REGIONAL WEATHER ROUNDUP
NATIONAL WEATHER SERVICE TAUNTON MA
200 AM EDT SAT AUG 29 2015

NOTE:  "FAIR" INDICATES FEW OR NO CLOUDS BELOW 12,000 FEET WITH NO 
SIGNIFICANT WEATHER AND/OR OBSTRUCTIONS TO VISIBILITY.  THE FOLLOWING 
OBSERVATION LOCATIONS DO NOT REPORT PRESENT WEATHER...PROVINCETOWN...
SMITHFIELD...BLOCK ISLAND...KEENE...AND OXFORD.

MAZALL-290700-
EASTERN MASSACHUSETTS
  
CITY           SKY/WX    TMP DP  RH WIND       PRES   REMARKS
BOSTON         FAIR      66  58  75 SW5       30.16F                  
6HR MIN TEMP:  66; 6HR MAX TEMP:  71;                                

BEVERLY        FAIR      58  55  90 CALM      30.15F                  
LAWRENCE       FAIR      60  57  89 S3        30.18S                  
BEDFORD        FAIR      56  54  93 CALM      30.16S                  
BLUE HILL        N/A     63  54  72 W7        30.17F                  
NORWOOD        FAIR      54  52  93 CALM      30.17S FOG              
MARSHFIELD     FAIR      61  61 100 W5        30.18S                  
PLYMOUTH       FAIR      57  56  96 CALM      30.18S                  
TAUNTON        FAIR      55  53  93 CALM      30.17S FOG              
NEW BEDFORD    FAIR      59  57  93 CALM      30.16F                  
$$

MAZALL-290700-
CAPE COD AND THE ISLANDS
  
CITY           SKY/WX    TMP DP  RH WIND       PRES   REMARKS
FALMOUTH       FAIR      63  59  88 W3        30.17F                  
HYANNIS        FAIR      64  61  90 SW5       30.16F                  
CHATHAM        FAIR      64  62  93 W3        30.18S                  
PROVINCETOWN   FAIR      63  55  77 SW3       30.16F                  
NANTUCKET      FAIR      64  62  93 SW6       30.18F                  
MARTHAS VNYRD  FAIR      59  57  93 SW3       30.18F                  
$$
 
MAZALL-290700-
CENTRAL AND WESTERN MASSACHUSETTS
  
CITY           SKY/WX    TMP DP  RH WIND       PRES   REMARKS
WORCESTER      FAIR      61  52  72 W9        30.20S                  
6HR MIN TEMP:  60; 6HR MAX TEMP:  66;                                

FITCHBURG      FAIR      58  55  90 CALM      30.18S                  
ORANGE         FOG       54  54 100 CALM      30.19S VSB 3/4          
SPRINGFIELD    FAIR      52  52 100 NE2       30.18S FOG              
WESTFIELD      FAIR      55  53  93 CALM      30.18F                  
NORTH ADAMS    FAIR      50  48  93 CALM      30.21F                  
PITTSFIELD     FAIR      51  50  96 CALM      30.20F                  
$$
 
RIZALL-290700-
RHODE ISLAND
  
CITY           SKY/WX    TMP DP  RH WIND       PRES   REMARKS
PROVIDENCE     FAIR      63  56  78 W6        30.18F                  
6HR MIN TEMP:  63; 6HR MAX TEMP:  72;                                

NEWPORT        FAIR      65  57  75 CALM      30.17F                  
BLOCK ISLAND   FAIR      66  64  94 W6        30.18F                  
SMITHFIELD     FAIR      54  52  94 CALM      30.18S                  
WESTERLY       FAIR      59  56  89 CALM      30.18F                  
$$
 
CTZALL-290700-
CONNECTICUT
  
CITY           SKY/WX    TMP DP  RH WIND       PRES   REMARKS
BRADLEY INTL   FAIR      58  55  90 CALM      30.18S                  
6HR MIN TEMP:  57; 6HR MAX TEMP:  71;                                

HARTFORD       FAIR      62  59  90 CALM      30.18S                  
BRIDGEPORT     FAIR      65  56  72 CALM      30.18F                  
DANBURY        FAIR      55  51  86 CALM      30.21F                  
GROTON         FAIR      61  60  97 CALM      30.17F                  
NEW HAVEN      FAIR      59  56  89 N3        30.18F                  
CHESTER        NOT AVBL                                               
MERIDEN        FAIR      58  55  90 CALM      30.19S                  
WILLIMANTIC    FAIR      57  54  89 CALM      30.19S                  
OXFORD         FAIR      55  46  71 CALM      30.21F                  
$$

MEZ002-015-021-024-NHZ003-005-008-011-012-014-VTZ005-008-290700-
NORTHERN NEW ENGLAND
  
CITY           SKY/WX    TMP DP  RH WIND       PRES   REMARKS
PORTLAND ME    FAIR      58  57  97 CALM      30.14F                  
6HR MIN TEMP:  58; 6HR MAX TEMP:  67;                                

BANGOR ME      FAIR      56  55  97 CALM      30.13F                  
CONCORD NH     FAIR      55  52  89 CALM      30.17S                  
MANCHESTER NH  FAIR      60  53  77 CALM      30.15S                  
NASHUA NH      FAIR      57  56  96 CALM      30.17F                  
PORTSMOUTH NH  PTCLDY    60  58  93 W1        30.14S                  
JAFFREY NH     FAIR      52  51  97 CALM      30.20S                  
KEENE NH       MOCLDY    54  48  82 CALM      30.19F VSB 1/2          
BURLINGTON VT  FAIR      58  54  86 CALM      30.17R                  
MT. WASHINGTON MOCLDY    50  21  32 W8          N/A                   
$$

NYZ052-076-290700-
EASTERN NEW YORK
  
CITY           SKY/WX    TMP DP  RH WIND       PRES   REMARKS
ALBANY         MOCLDY    58  53  84 CALM      30.19F                  
6HR MIN TEMP:  56; 6HR MAX TEMP:  69;                                

NEW YORK CITY  FAIR      72  57  59 CALM      30.18F                  
6HR MIN TEMP:  72; 6HR MAX TEMP:  81;                                

$$
 
ANZALL-290700-
MARINE OBSERVATIONS
  
STATION/POSITION TIME  TEMP    WIND        PRES    VSBY  WAVE
                       AIR SEA DIR/SP/G                  HT/PER
                 (UTC) (F)     (DEG/KT/KT) (MB)    (MI)  (FT/S)
BOSTON BUOY      0550   68 68  260/  8/ 10 1021.3F         3/11
BUZZARDS BAY     0500          270/ 10/ 11 1022.8F
NANTUCKET SOUND  0550   72 74  250/ 12/ 14 1021.4F         1/ 3
MASS BAY-STELLWA 0504   69 70  240/  6/  8   N/A    1 7/8  3/11
ISLE OF SHOALS   0600   66     250/  7/  8 1020.4F
S OF BLOCK IS    0508      74                N/A           3/12
$$

......................KEY.........................
  SKY/WX - SKY CONDITION/PRESENT WEATHER
  TMP    - TEMPERATURE IN FAHRENHEIT
  DWPT   - DEWPOINT IN FAHRENHEIT
  RH     - RELATIVE HUMIDITY IN PERCENT
  WIND   - DIRECTION AND SPEED IN MPH
  PRES   - MEAN SEA LEVEL PRESSURE IN INCHES OF HG
  WCI    - WIND CHILL INDEX
  VSB    - VISIBILITY IN MILES
  HX     - HEAT INDEX
  TC     - TEMPERATURE IN CELSIUS
  VRB    - VARIABLE WIND DIRECTION
  N/A    - NOT AVAILABLE

Return to Home page


Western Regional Climate Center, wrcc@dri.edu